SCP
1 1 1 2 1 1 1 1 1 1 1 0 1 0 0 0 0 0 0 0 0 0 0 0 0 0 0 0 0 0 0 0 0 0 0 0 0 0 0 0 0 0 0
1 1 1 1 1 1 1 1 1 0 0 0 0 0 0 0 0 0 0 0 0 0 0 0 0 0 0 0 0 0 0 0 0 0 0 0 0 0 0 0 0 0 0
1 1 0 0 0 0 0 0 0 0 0 0 0 0 0 0 0 0 0 0 0 0 0 0 0 0 0 0 0 0 0 0 0 0 0 0 0 0 0 0 0 0 0
0 0 0 0 0 0 0 0 0 0 0 0 0 0 0 0 0 0 0 0 0 0 0 0 0 0 0 0 0 0 0 0 0 0 0 0 0 0 0 0 0 0 0
0 0 0 0 0 0 0 0 0 0 0 0 0 0 0 0 0 0 0 0 0 0 0 0 0 0 0 0 0 0 0 0 0 0 0 0 0 0 0 0 0 0 0
0 0 0 0 0 0 0 0 0 0 0 0 0 0 0 0 0 0 0 0 0 0 0 0 -0 0 0 0 0 0 0 0 0 0 0 0 0 0 0 0 0 0 0
0 0 0 0 0 0 0 0 0 0 0 0 0 0 0 0 0 0 0 0 0 0 0 0 0 0 0 0 0 0 0 0 0 0 0 0 0 0 0 0 0 0 0
0 0 0 0 0 0 0 0 0 0 0 0 0 0 0 0 0 0 0 0 0 0 0 0 0 0 -0 0 0 0 0 0 0 0 0 0 0 0 0 0 0 0 0
0 0 0 0 0 0 0 0 0 0 0 0 0 0 0 0 0 0 0 0 0 0 0 -0 -0 0 0 0 0 0 0 0 0 0 0 0 0 0 0 0 0 0 0
0 0 0 0 0 0 0 -0 0 0 0 0 0 0 0 0 0 0 0 0 0 0 -0 -0 0 0 0 0 0 0 0 0 0 0 0 0 0 0 0 0 0 0 0
0 0 -0 0 0 0 0 0 0 -0 0 0 0 0 0 0 0 0 -0 0 0 0 -0 -0 0 0 0 0 0 0 0 0 0 0 0 0 0 0 0 0 0 0 0
0 0 -0 0 0 0 0 0 0 -0 0 0 0 0 0 0 0 -0 -0 -0 0 -0 -0 -0 -0 -0 0 0 0 0 0 0 0 0 0 0 0 0 0 0 0 0 0
0 -0 0 0 0 0 0 0 0 0 0 0 0 0 0 0 0 -0 -0 -0 -0 -0 -0 -0 -0 -0 0 0 0 0 0 0 0 0 0 0 0 0 0 0 0 0 0
0 0 0 0 0 0 0 0 0 0 0 0 0 0 0 0 0 0 -0 -0 -0 -0 -0 0 -0 -0 0 0 0 0 0 0 0 0 0 0 0 0 0 0 0 0 0
-0 -0 0 0 0 0 -0 0 -0 0 0 0 0 0 0 0 0 0 -0 -0 -0 -0 -0 0 0 0 0 0 0 0 0 0 0 0 0 0 0 0 0 0 0 0 0
0 0 -0 -0 0 0 -0 -0 -0 -0 -0 0 0 0 0 -0 -0 -0 -0 -0 -0 -0 -0 -0 -0 0 0 0 0 0 0 0 0 0 0 0 0 0 0 0 0 0 0
-0 -0 -0 0 0 -0 -0 -0 -0 -0 -0 -0 0 0 -0 -0 -0 -0 -0 -0 -0 -0 0 -0 0 0 0 0 0 0 0 0 0 0 0 0 0 -0 -0 -0 0 0 0
-0 0 0 0 -0 -0 -0 -0 0 -0 -0 0 0 0 -0 -0 -0 -0 -0 -0 0 0 0 0 0 0 0 0 0 0 0 0 0 -0 0 0 -0 -0 -0 -0 0 0 0
0 -0 -0 0 -0 -0 -0 -0 -0 0 0 0 0 0 0 -0 -0 -0 -0 -0 -0 0 0 0 0 0 0 0 0 -0 -0 -0 -0 0 0 -0 0 0 0 0 0 0 0
0 -0 0 0 0 0 -0 -0 0 0 -0 0 -0 0 0 0 0 0 0 -0 -0 -0 0 0 0 0 0 0 0 -0 -0 -0 0 0 0 0 0 0 -0 -0 0 -0 -0
0 -0 0 0 -0 -0 -0 -0 0 -0 -0 0 -0 0 0 -0 -0 0 0 0 0 0 0 0 0 -0 -0 0 -0 0 0 0 0 0 0 0 -0 -0 -0 -0 -0 -0 -0
0 0 -0 -0 0 0 0 -0 -0 0 -0 0 0 0 -0 0 0 -0 0 0 0 0 0 0 0 0 0 0 0 0 0 0 -0 -0 -0 -0 -0 0 0 -0 -0 -0 -0
0 0 0 0 0 0 0 0 -0 0 0 -0 -0 0 0 -0 0 0 0 0 0 0 -0 0 0 0 -0 -0 -0 0 0 0 -0 0 0 -0 0 0 -0 0 0 0 0
0 0 0 0 0 0 -0 0 0 0 0 -0 0 -0 0 0 0 -0 0 -0 -0 0 0 -0 0 0 0 0 0 0 0 -0 0 -0 -0 -0 -0 -0 -0 -0 0 0 0
0 0 0 0 0 0 0 0 0 0 0 0 0 -0 -0 0 0 0 0 0 0 0 0 -0 -0 -0 -0 -0 -0 -0 -0 -0 0 0 0 0 0 0 0 0 0 0 0
0 0 0 0 0 0 0 0 0 0 0 0 0 0 0 0 0 0 0 0 0 -0 -0 -0 -0 -0 -0 -0 -0 0 0 0 0 0 0 0 0 0 0 0 0 0 0
Wind_Speed_500mb
43 45 46 45 42 40 41 39 37 34 33 30 28 27 22 20 21 20 18 18 22 24 24 24 18 14 18 21 24 18 16 19 22 24 25 27 25 24 28 29 30 38 37
44 44 45 44 43 44 41 37 33 31 27 26 26 23 23 22 20 21 20 18 19 20 22 23 19 19 19 22 25 22 21 26 27 27 25 27 24 29 31 29 35 38 40
45 45 44 44 43 40 37 33 30 27 27 26 25 24 22 21 22 19 19 20 23 24 22 17 22 20 16 25 22 27 22 26 26 26 32 30 32 28 33 36 39 41 42
46 45 44 41 38 35 32 30 29 28 27 25 23 21 21 20 19 19 17 16 18 22 19 19 26 29 19 22 24 24 27 30 31 31 36 37 39 40 39 47 47 45 47
47 45 42 38 34 32 31 31 30 28 25 23 25 26 20 15 17 16 14 18 17 21 19 19 20 28 27 23 25 20 31 38 35 42 42 44 48 47 49 55 58 58 66
45 42 39 36 34 33 35 36 34 27 26 26 23 20 17 14 24 27 20 17 18 19 16 16 18 20 26 22 27 21 35 38 38 48 49 49 49 47 53 57 61 64 68
42 39 37 35 35 33 34 34 30 30 28 24 23 16 11 17 12 15 19 14 20 13 13 17 18 20 25 27 28 25 31 19 26 42 50 55 50 49 54 55 55 65 73
40 38 35 32 30 31 34 32 29 29 27 24 18 14 15 12 10 15 14 11 13 12 12 19 16 18 30 28 28 29 25 23 23 35 43 40 38 44 50 60 69 71 70
39 36 33 29 31 31 36 35 30 27 23 20 16 17 13 10 13 13 13 8 12 11 11 17 13 16 34 38 33 41 34 30 30 25 31 36 38 42 61 66 68 65 67
37 34 30 30 28 32 33 33 28 25 24 20 18 14 14 13 13 12 16 6 11 12 15 18 18 12 32 43 39 41 40 39 33 28 33 33 42 39 59 62 54 67 69
35 32 31 28 31 31 32 27 26 25 23 22 18 17 15 12 12 12 13 12 7 12 17 25 25 17 30 45 39 41 41 44 37 32 35 32 37 54 61 51 56 52 59
37 32 30 31 28 32 30 23 27 27 28 26 19 20 16 15 17 13 9 8 10 16 15 25 27 30 27 35 32 32 40 40 42 39 40 37 42 48 48 45 39 44 47
40 35 31 31 30 29 28 25 24 26 29 25 20 17 16 16 18 15 8 4 9 15 18 25 28 35 34 32 28 30 40 38 38 44 48 48 42 45 45 54 56 26 28
45 36 33 32 29 27 26 20 22 24 25 23 24 18 17 17 12 13 9 7 11 17 24 31 32 38 40 37 28 37 37 36 40 43 44 47 37 47 48 61 58 21 20
41 37 32 32 28 27 25 18 15 19 25 22 25 22 18 18 19 17 11 12 16 23 27 32 38 40 39 42 39 38 33 33 41 44 43 42 36 50 50 53 51 32 20
39 36 32 32 26 25 17 18 16 12 22 26 32 25 24 20 15 14 11 15 20 28 32 31 33 36 42 42 51 45 35 37 37 40 43 40 47 46 44 43 37 26 26
36 37 36 34 30 21 23 17 15 18 21 29 29 24 17 21 17 15 17 21 31 29 28 26 29 36 45 39 45 42 39 34 32 36 41 41 40 40 39 37 34 28 30
36 35 30 29 24 23 26 18 18 16 17 22 27 26 18 20 16 18 23 31 36 30 24 23 25 33 37 35 36 44 34 39 34 31 37 45 42 43 42 34 34 30 29
37 35 31 26 23 24 28 22 19 20 23 21 26 24 23 28 23 21 22 32 30 29 21 22 18 22 26 31 30 37 34 37 33 35 38 37 40 44 37 32 32 34 32
37 34 29 30 25 22 29 28 26 20 26 18 21 25 35 35 32 31 28 22 22 23 27 23 22 22 20 28 28 33 33 37 33 33 31 32 34 38 35 34 34 33 35
39 36 25 29 25 27 24 30 28 24 29 22 20 23 34 29 26 25 24 23 17 12 20 26 21 20 26 26 23 30 32 31 35 30 29 28 29 31 38 38 36 37 37
39 38 30 32 28 27 26 23 26 29 30 32 23 21 32 27 21 21 18 17 17 21 19 18 20 25 23 30 30 30 30 30 29 29 32 32 30 33 35 40 41 41 41
41 38 32 29 29 28 26 27 25 21 27 33 27 32 37 27 25 18 17 17 13 13 12 5 11 17 20 24 26 25 25 27 29 31 33 33 36 37 39 43 44 46 48
38 37 35 27 32 29 28 27 26 24 25 28 27 25 19 11 24 17 15 15 11 14 18 16 15 14 14 13 13 19 25 29 30 33 35 35 38 40 42 44 47 49 51
41 36 36 29 29 25 26 19 33 27 23 26 26 23 21 18 13 23 15 15 15 15 13 16 21 22 25 27 28 29 27 30 33 31 28 32 36 40 45 48 55 54 53
45 41 39 41 40 31 29 32 35 34 37 40 41 41 43 38 35 32 30 25 15 23 24 25 27 27 29 34 37 36 34 32 38 44 47 43 35 37 41 45 49 54 57
Wind_Direction_500mb
163 159 160 162 162 157 156 156 159 158 164 172 187 194 195 202 203 209 198 209 217 218 211 214 229 227 223 213 204 182 187 174 173 158 162 158 168 171 167 173 172 176 173
159 158 158 156 155 154 153 155 159 161 168 182 192 195 195 194 199 202 202 217 215 217 224 231 236 231 221 207 197 193 176 181 183 163 173 176 171 166 170 165 163 172 166
159 157 153 151 154 153 154 158 160 169 173 181 182 182 185 190 207 203 215 225 230 228 223 237 231 222 223 203 188 196 194 175 181 177 168 171 159 163 167 163 165 162 164
154 154 152 153 154 155 159 160 164 165 168 170 173 177 183 195 199 218 220 221 211 218 228 247 236 231 216 197 192 191 192 177 168 177 170 164 160 162 163 162 158 160 167
153 155 154 154 156 160 159 158 161 165 167 168 177 178 177 185 198 193 202 223 207 220 235 254 233 205 210 195 187 193 186 171 173 170 167 167 166 163 167 163 162 164 165
155 156 155 153 155 158 161 169 160 163 168 169 175 173 177 201 227 221 217 202 211 219 239 236 209 199 198 195 188 180 166 181 183 173 171 172 172 172 170 173 169 168 151
155 154 152 154 162 164 161 165 164 166 169 171 168 164 167 230 207 200 203 210 217 236 208 181 194 199 188 186 178 174 176 192 188 182 176 178 177 176 175 170 171 175 169
156 153 155 160 161 168 167 163 168 175 176 172 163 159 192 233 197 187 188 190 212 185 171 184 194 199 182 173 169 170 168 166 173 183 185 175 177 172 170 171 170 174 168
157 159 160 162 163 168 167 170 176 170 165 165 156 179 171 172 164 162 145 154 172 169 168 174 190 183 182 164 171 167 164 160 172 188 186 179 170 175 183 177 174 173 165
161 162 161 161 173 166 170 180 171 166 165 154 164 167 171 169 164 161 140 137 166 172 171 164 158 136 166 165 173 169 169 169 169 164 172 175 184 184 177 183 182 174 169
162 159 153 156 162 167 172 176 166 167 164 158 149 153 139 152 157 147 153 145 174 174 173 165 175 149 155 166 164 168 176 167 167 167 168 172 184 180 182 183 181 190 178
153 161 148 161 164 172 174 168 168 173 163 163 162 151 154 149 148 151 148 164 186 166 172 165 167 167 154 162 166 170 169 164 167 170 172 168 171 174 182 173 174 178 172
154 150 154 153 160 167 170 173 178 175 171 166 163 165 159 159 159 156 154 137 168 164 166 157 156 161 161 164 168 166 171 167 167 165 163 170 176 171 176 164 159 148 166
155 158 158 156 155 160 167 179 184 184 177 180 176 174 171 163 176 158 167 165 157 153 149 159 161 166 171 159 152 165 169 174 170 169 164 157 176 176 170 169 178 160 164
161 160 161 160 159 159 155 144 181 191 184 182 174 179 183 177 167 168 171 170 176 165 158 157 159 161 163 167 160 157 170 170 170 167 169 169 167 169 175 180 190 201 193
163 158 169 161 165 166 157 181 180 176 178 177 178 177 183 194 192 179 175 161 165 159 154 155 162 169 171 168 171 176 175 174 175 175 178 179 174 174 173 184 183 197 206
170 163 165 169 168 163 162 155 153 154 169 183 179 187 190 194 173 155 159 157 160 153 149 151 161 161 162 173 182 186 179 183 182 181 185 177 175 177 182 188 199 208 216
170 162 166 167 165 169 162 161 146 142 153 172 186 195 188 171 155 149 158 157 158 152 148 148 161 167 166 164 170 180 186 184 182 176 185 188 183 185 192 198 202 211 219
165 170 174 159 162 165 163 157 153 165 157 157 172 174 169 159 143 144 153 160 164 163 152 156 162 166 175 175 171 171 176 177 173 175 179 179 192 196 198 204 211 220 225
172 175 177 155 145 162 163 163 158 151 155 155 158 172 168 165 160 154 142 161 176 177 174 160 159 169 165 165 171 169 170 170 181 182 184 192 198 202 207 213 221 229 233
174 183 184 163 161 156 161 168 152 145 152 145 149 172 172 159 160 160 157 163 161 164 184 182 179 175 172 175 182 177 185 185 198 196 203 203 206 210 214 222 228 234 240
173 175 178 173 164 160 154 157 156 156 146 138 143 150 143 144 160 167 169 155 173 168 166 169 183 189 193 192 189 192 198 199 205 211 213 219 219 216 218 228 235 241 246
176 173 192 178 168 152 151 155 157 156 143 137 130 138 146 149 168 173 174 177 174 181 167 176 170 171 181 191 205 209 214 216 220 218 221 225 227 229 232 236 241 245 249
173 173 186 182 167 170 175 163 151 160 159 147 135 149 157 172 166 155 159 160 165 174 175 177 181 186 189 204 220 232 230 231 228 230 231 234 236 243 245 248 250 252 254
173 176 182 173 153 178 162 158 157 156 160 158 144 144 152 154 129 134 124 148 162 164 165 179 185 191 205 203 210 214 222 228 229 226 230 241 247 251 254 259 258 257 262
165 164 153 147 159 159 147 142 148 132 129 132 124 139 132 136 122 123 113 90 138 178 191 200 207 210 209 218 227 234 234 237 245 248 240 238 248 254 256 259 262 263 266
Wind_Speed_850mb
43 45 46 45 42 40 41 39 37 34 33 30 28 27 22 20 21 20 18 18 22 24 24 24 18 14 18 21 24 18 16 19 22 24 25 27 25 24 28 29 30 38 37
44 44 45 44 43 44 41 37 33 31 27 26 26 23 23 22 20 21 20 18 19 20 22 23 19 19 19 22 25 22 21 26 27 27 25 27 24 29 31 29 35 38 40
45 45 44 44 43 40 37 33 30 27 27 26 25 24 22 21 22 19 19 20 23 24 22 17 22 20 16 25 22 27 22 26 26 26 32 30 32 28 33 36 39 41 42
46 45 44 41 38 35 32 30 29 28 27 25 23 21 21 20 19 19 17 16 18 22 19 19 26 29 19 22 24 24 27 30 31 31 36 37 39 40 39 47 47 45 47
47 45 42 38 34 32 31 31 30 28 25 23 25 26 20 15 17 16 14 18 17 21 19 19 20 28 27 23 25 20 31 38 35 42 42 44 48 47 49 55 58 58 66
45 42 39 36 34 33 35 36 34 27 26 26 23 20 17 14 24 27 20 17 18 19 16 16 18 20 26 22 27 21 35 38 38 48 49 49 49 47 53 57 61 64 68
42 39 37 35 35 33 34 34 30 30 28 24 23 16 11 17 12 15 19 14 20 13 13 17 18 20 25 27 28 25 31 19 26 42 50 55 50 49 54 55 55 65 73
40 38 35 32 30 31 34 32 29 29 27 24 18 14 15 12 10 15 14 11 13 12 12 19 16 18 30 28 28 29 25 23 23 35 43 40 38 44 50 60 69 71 70
39 36 33 29 31 31 36 35 30 27 23 20 16 17 13 10 13 13 13 8 12 11 11 17 13 16 34 38 33 41 34 30 30 25 31 36 38 42 61 66 68 65 67
37 34 30 30 28 32 33 33 28 25 24 20 18 14 14 13 13 12 16 6 11 12 15 18 18 12 32 43 39 41 40 39 33 28 33 33 42 39 59 62 54 67 69
35 32 31 28 31 31 32 27 26 25 23 22 18 17 15 12 12 12 13 12 7 12 17 25 25 17 30 45 39 41 41 44 37 32 35 32 37 54 61 51 56 52 59
37 32 30 31 28 32 30 23 27 27 28 26 19 20 16 15 17 13 9 8 10 16 15 25 27 30 27 35 32 32 40 40 42 39 40 37 42 48 48 45 39 44 47
40 35 31 31 30 29 28 25 24 26 29 25 20 17 16 16 18 15 8 4 9 15 18 25 28 35 34 32 28 30 40 38 38 44 48 48 42 45 45 54 56 26 28
45 36 33 32 29 27 26 20 22 24 25 23 24 18 17 17 12 13 9 7 11 17 24 31 32 38 40 37 28 37 37 36 40 43 44 47 37 47 48 61 58 21 20
41 37 32 32 28 27 25 18 15 19 25 22 25 22 18 18 19 17 11 12 16 23 27 32 38 40 39 42 39 38 33 33 41 44 43 42 36 50 50 53 51 32 20
39 36 32 32 26 25 17 18 16 12 22 26 32 25 24 20 15 14 11 15 20 28 32 31 33 36 42 42 51 45 35 37 37 40 43 40 47 46 44 43 37 26 26
36 37 36 34 30 21 23 17 15 18 21 29 29 24 17 21 17 15 17 21 31 29 28 26 29 36 45 39 45 42 39 34 32 36 41 41 40 40 39 37 34 28 30
36 35 30 29 24 23 26 18 18 16 17 22 27 26 18 20 16 18 23 31 36 30 24 23 25 33 37 35 36 44 34 39 34 31 37 45 42 43 42 34 34 30 29
37 35 31 26 23 24 28 22 19 20 23 21 26 24 23 28 23 21 22 32 30 29 21 22 18 22 26 31 30 37 34 37 33 35 38 37 40 44 37 32 32 34 32
37 34 29 30 25 22 29 28 26 20 26 18 21 25 35 35 32 31 28 22 22 23 27 23 22 22 20 28 28 33 33 37 33 33 31 32 34 38 35 34 34 33 35
39 36 25 29 25 27 24 30 28 24 29 22 20 23 34 29 26 25 24 23 17 12 20 26 21 20 26 26 23 30 32 31 35 30 29 28 29 31 38 38 36 37 37
39 38 30 32 28 27 26 23 26 29 30 32 23 21 32 27 21 21 18 17 17 21 19 18 20 25 23 30 30 30 30 30 29 29 32 32 30 33 35 40 41 41 41
41 38 32 29 29 28 26 27 25 21 27 33 27 32 37 27 25 18 17 17 13 13 12 5 11 17 20 24 26 25 25 27 29 31 33 33 36 37 39 43 44 46 48
38 37 35 27 32 29 28 27 26 24 25 28 27 25 19 11 24 17 15 15 11 14 18 16 15 14 14 13 13 19 25 29 30 33 35 35 38 40 42 44 47 49 51
41 36 36 29 29 25 26 19 33 27 23 26 26 23 21 18 13 23 15 15 15 15 13 16 21 22 25 27 28 29 27 30 33 31 28 32 36 40 45 48 55 54 53
45 41 39 41 40 31 29 32 35 34 37 40 41 41 43 38 35 32 30 25 15 23 24 25 27 27 29 34 37 36 34 32 38 44 47 43 35 37 41 45 49 54 57
Wind_Direction_850mb
163 159 160 162 162 157 156 156 159 158 164 172 187 194 195 202 203 209 198 209 217 218 211 214 229 227 223 213 204 182 187 174 173 158 162 158 168 171 167 173 172 176 173
159 158 158 156 155 154 153 155 159 161 168 182 192 195 195 194 199 202 202 217 215 217 224 231 236 231 221 207 197 193 176 181 183 163 173 176 171 166 170 165 163 172 166
159 157 153 151 154 153 154 158 160 169 173 181 182 182 185 190 207 203 215 225 230 228 223 237 231 222 223 203 188 196 194 175 181 177 168 171 159 163 167 163 165 162 164
154 154 152 153 154 155 159 160 164 165 168 170 173 177 183 195 199 218 220 221 211 218 228 247 236 231 216 197 192 191 192 177 168 177 170 164 160 162 163 162 158 160 167
153 155 154 154 156 160 159 158 161 165 167 168 177 178 177 185 198 193 202 223 207 220 235 254 233 205 210 195 187 193 186 171 173 170 167 167 166 163 167 163 162 164 165
155 156 155 153 155 158 161 169 160 163 168 169 175 173 177 201 227 221 217 202 211 219 239 236 209 199 198 195 188 180 166 181 183 173 171 172 172 172 170 173 169 168 151
155 154 152 154 162 164 161 165 164 166 169 171 168 164 167 230 207 200 203 210 217 236 208 181 194 199 188 186 178 174 176 192 188 182 176 178 177 176 175 170 171 175 169
156 153 155 160 161 168 167 163 168 175 176 172 163 159 192 233 197 187 188 190 212 185 171 184 194 199 182 173 169 170 168 166 173 183 185 175 177 172 170 171 170 174 168
157 159 160 162 163 168 167 170 176 170 165 165 156 179 171 172 164 162 145 154 172 169 168 174 190 183 182 164 171 167 164 160 172 188 186 179 170 175 183 177 174 173 165
161 162 161 161 173 166 170 180 171 166 165 154 164 167 171 169 164 161 140 137 166 172 171 164 158 136 166 165 173 169 169 169 169 164 172 175 184 184 177 183 182 174 169
162 159 153 156 162 167 172 176 166 167 164 158 149 153 139 152 157 147 153 145 174 174 173 165 175 149 155 166 164 168 176 167 167 167 168 172 184 180 182 183 181 190 178
153 161 148 161 164 172 174 168 168 173 163 163 162 151 154 149 148 151 148 164 186 166 172 165 167 167 154 162 166 170 169 164 167 170 172 168 171 174 182 173 174 178 172
154 150 154 153 160 167 170 173 178 175 171 166 163 165 159 159 159 156 154 137 168 164 166 157 156 161 161 164 168 166 171 167 167 165 163 170 176 171 176 164 159 148 166
155 158 158 156 155 160 167 179 184 184 177 180 176 174 171 163 176 158 167 165 157 153 149 159 161 166 171 159 152 165 169 174 170 169 164 157 176 176 170 169 178 160 164
161 160 161 160 159 159 155 144 181 191 184 182 174 179 183 177 167 168 171 170 176 165 158 157 159 161 163 167 160 157 170 170 170 167 169 169 167 169 175 180 190 201 193
163 158 169 161 165 166 157 181 180 176 178 177 178 177 183 194 192 179 175 161 165 159 154 155 162 169 171 168 171 176 175 174 175 175 178 179 174 174 173 184 183 197 206
170 163 165 169 168 163 162 155 153 154 169 183 179 187 190 194 173 155 159 157 160 153 149 151 161 161 162 173 182 186 179 183 182 181 185 177 175 177 182 188 199 208 216
170 162 166 167 165 169 162 161 146 142 153 172 186 195 188 171 155 149 158 157 158 152 148 148 161 167 166 164 170 180 186 184 182 176 185 188 183 185 192 198 202 211 219
165 170 174 159 162 165 163 157 153 165 157 157 172 174 169 159 143 144 153 160 164 163 152 156 162 166 175 175 171 171 176 177 173 175 179 179 192 196 198 204 211 220 225
172 175 177 155 145 162 163 163 158 151 155 155 158 172 168 165 160 154 142 161 176 177 174 160 159 169 165 165 171 169 170 170 181 182 184 192 198 202 207 213 221 229 233
174 183 184 163 161 156 161 168 152 145 152 145 149 172 172 159 160 160 157 163 161 164 184 182 179 175 172 175 182 177 185 185 198 196 203 203 206 210 214 222 228 234 240
173 175 178 173 164 160 154 157 156 156 146 138 143 150 143 144 160 167 169 155 173 168 166 169 183 189 193 192 189 192 198 199 205 211 213 219 219 216 218 228 235 241 246
176 173 192 178 168 152 151 155 157 156 143 137 130 138 146 149 168 173 174 177 174 181 167 176 170 171 181 191 205 209 214 216 220 218 221 225 227 229 232 236 241 245 249
173 173 186 182 167 170 175 163 151 160 159 147 135 149 157 172 166 155 159 160 165 174 175 177 181 186 189 204 220 232 230 231 228 230 231 234 236 243 245 248 250 252 254
173 176 182 173 153 178 162 158 157 156 160 158 144 144 152 154 129 134 124 148 162 164 165 179 185 191 205 203 210 214 222 228 229 226 230 241 247 251 254 259 258 257 262
165 164 153 147 159 159 147 142 148 132 129 132 124 139 132 136 122 123 113 90 138 178 191 200 207 210 209 218 227 234 234 237 245 248 240 238 248 254 256 259 262 263 266